GW3162 Weather Reports


time (UTC)temp
C
wind
direction
speed
KPH
gust
KPH
rain 1hr
cm
rain 24hr
cm
rain mn
cm
humidity
%
barometer
mb
20260506020109 22 347 3.2 6.4 0.00 0.00 0.00 28 1011.1
20260506014615 22 346 4.8 8.0 0.00 0.00 0.00 28 1010.9
20260506013108 23 349 3.2 8.0 0.00 0.00 0.00 26 1010.9
20260506011606 23 200 6.4 11.3 0.00 0.00 0.00 25 1010.8
20260506010110 23 356 4.8 14.5 0.00 0.00 0.00 26 1010.9
20260506004606 22 23 3.2 6.4 0.00 0.00 0.00 27 1010.8
20260506003112 22 6 3.2 6.4 0.00 0.00 0.00 26 1010.8
20260506001617 22 348 3.2 6.4 0.00 0.00 0.00 25 1010.7
20260506000106 22 351 4.8 9.7 0.00 0.00 0.00 26 1010.7
20260505234616 22 2 3.2 9.7 0.00 0.00 0.00 25 1010.7
20260505233106 23 358 3.2 4.8 0.00 0.00 0.00 24 1010.8
20260505231608 23 36 4.8 11.3 0.00 0.00 0.00 23 1010.8
20260505230110 23 0 6.4 11.3 0.00 0.00 0.00 24 1011.0
20260505224606 23 11 4.8 11.3 0.00 0.00 0.00 25 1011.1
20260505223108 24 4 8.0 12.9 0.00 0.00 0.00 24 1011.1
20260505221606 24 0 8.0 16.1 0.00 0.00 0.00 24 1011.2
20260505220112 24 0 8.0 11.3 0.00 0.00 0.00 23 1011.1
20260505214606 24 4 6.4 9.7 0.00 0.00 0.00 24 1011.2
20260505213111 23 3 4.8 9.7 0.00 0.00 0.00 24 1011.3
20260505211609 23 5 4.8 11.3 0.00 0.00 0.00 26 1011.3
20260505210110 23 5 4.8 9.7 0.00 0.00 0.00 25 1011.4
20260505203107 23 2 3.2 4.8 0.00 0.00 0.00 24 1011.4
20260505201608 23 6 4.8 9.7 0.00 0.00 0.00 27 1011.7
20260505200107 23 347 4.8 11.3 0.00 0.00 0.00 27 1011.9
20260505194606 23 356 3.2 6.4 0.00 0.00 0.00 30 1011.9
20260505193108 22 352 9.7 16.1 0.00 0.00 0.00 28 1011.9
20260505191612 22 2 8.0 12.9 0.00 0.00 0.00 30 1011.8
20260505190109 22 0 11.3 17.7 0.00 0.00 0.00 29 1011.9
20260505184611 22 9 6.4 8.0 0.00 0.00 0.00 33 1011.9
20260505183108 21 357 11.3 17.7 0.00 0.00 0.00 32 1011.8
20260505180108 21 8 6.4 11.3 0.00 0.00 0.00 34 1011.7
20260505174608 20 3 6.4 8.0 0.00 0.00 0.00 36 1011.6
20260505173112 20 357 8.0 12.9 0.00 0.00 0.00 34 1011.6
20260505170109 20 347 9.7 16.1 0.00 0.00 0.00 34 1011.3
20260505164607 20 9 4.8 9.7 0.00 0.00 0.00 37 1011.2
20260505163107 19 354 8.0 11.3 0.00 0.00 0.00 37 1011.1
20260505160106 18 357 6.4 12.9 0.00 0.00 0.00 37 1011.1
20260505153106 17 359 3.2 6.4 0.00 0.00 0.00 37 1011.0
20260505151607 17 329 0.0 3.2 0.00 0.00 0.00 35 1011.0
20260505150107 17 340 3.2 6.4 0.00 0.00 0.00 34 1010.9
20260505140106 13 178 0.0 3.2 0.00 0.00 0.00 43 1010.4
20260505130109 11 244 1.6 6.4 0.00 0.00 0.00 43 1010.0
20260505124607 10 241 3.2 4.8 0.00 0.00 0.00 46 1010.0
20260505123107 10 242 4.8 6.4 0.00 0.00 0.00 46 1009.9
20260505121606 11 240 0.0 0.0 0.00 0.00 0.00 45 1009.8
20260505120108 12 248 4.8 6.4 0.00 0.00 0.00 41 1009.6
20260505113106 12 246 6.4 8.0 0.00 0.00 0.00 42 1009.4
20260505111607 11 234 3.2 4.8 0.00 0.00 0.00 44 1009.3
20260505110106 11 258 6.4 12.9 0.00 0.00 0.00 45 1009.3
20260505101607 10 250 4.8 6.4 0.00 0.00 0.00 45 1008.8
20260505100110 10 252 1.6 3.2 0.00 0.00 0.00 47 1008.8
20260505094608 10 260 1.6 3.2 0.00 0.00 0.00 47 1008.7
20260505091606 13 248 0.0 1.6 0.00 0.00 0.00 40 1008.8
20260505090111 13 218 0.0 3.2 0.00 0.00 0.00 41 1008.8
20260505084606 13 218 1.6 3.2 0.00 0.00 0.00 41 1008.8
20260505083110 13 273 1.6 6.4 0.00 0.00 0.00 41 1009.0
20260505081607 12 211 1.6 3.2 0.00 0.00 0.00 42 1009.1
20260505080114 12 239 1.6 4.8 0.00 0.00 0.00 47 1009.1
20260505073108 15 0 0.0 0.0 0.00 0.00 0.00 38 1008.7
20260505071607 15 227 4.8 6.4 0.00 0.00 0.00 39 1008.6
20260505064610 15 220 1.6 6.4 0.00 0.00 0.00 41 1008.4
20260505063108 15 220 3.2 4.8 0.00 0.00 0.00 41 1008.4
20260505061606 16 229 3.2 4.8 0.00 0.00 0.00 39 1008.3
20260505054609 17 338 1.6 3.2 0.00 0.00 0.00 35 1008.2
20260505053111 17 200 1.6 3.2 0.00 0.00 0.00 35 1008.1
20260505051606 16 224 1.6 4.8 0.00 0.00 0.00 36 1007.9
20260505050109 15 238 1.6 3.2 0.00 0.00 0.00 39 1007.9
20260505041609 16 273 0.0 3.2 0.00 0.00 0.00 36 1007.6
20260505040109 17 316 0.0 1.6 0.00 0.00 0.00 33 1007.4
20260505034605 18 218 1.6 3.2 0.00 0.00 0.00 32 1007.2
20260505033107 19 210 0.0 3.2 0.00 0.00 0.00 30 1006.9
20260505031607 20 265 1.6 4.8 0.00 0.00 0.00 27 1006.8
20260505030107 20 299 3.2 4.8 0.00 0.00 0.00 27 1006.6
20260505024606 20 211 0.0 3.2 0.00 0.00 0.00 26 1006.5
20260505023106 21 12 1.6 4.8 0.00 0.00 0.00 26 1006.5
20260505021615 21 348 3.2 6.4 0.00 0.00 0.00 26 1006.4